CAPE
7 6 15 16 13 14 1 6 6 0 0 0 0 0 0 0 0 0 0 2 5 9 6 5 2 3 2 5 3 0 0 1 1 2 1 0 1 0 0 0 0 0 0
6 7 18 21 9 14 11 5 3 4 1 0 0 0 0 0 0 0 0 0 0 4 5 3 2 1 2 1 0 3 3 2 1 2 0 0 0 0 0 0 0 0 0
2 2 5 10 9 11 13 7 6 6 2 0 0 0 0 0 0 0 1 0 0 0 0 5 5 1 5 0 0 0 1 0 2 0 1 0 2 0 0 0 0 0 0
3 4 7 4 4 8 9 11 6 5 2 0 0 0 0 0 0 0 0 0 0 0 0 0 0 0 0 1 1 0 1 1 0 0 0 1 1 2 0 0 0 0 0
13 10 3 10 13 9 6 9 13 10 7 2 0 0 0 0 0 0 0 0 0 0 0 0 0 0 0 0 0 1 1 1 1 0 0 0 1 1 1 2 1 0 0
15 4 0 16 5 6 8 11 12 15 20 9 2 0 0 0 0 0 0 0 0 0 0 0 0 0 0 0 0 0 1 1 1 3 1 2 1 1 1 0 1 1 1
7 6 0 1 6 0 3 11 12 21 14 19 6 1 1 0 0 0 0 0 0 0 0 0 0 0 0 0 0 0 0 0 2 7 2 1 2 1 0 1 1 0 1
25 6 0 0 0 0 2 9 13 12 10 12 2 1 1 0 0 0 0 0 0 0 0 0 0 0 0 0 0 0 0 0 0 0 3 2 0 0 0 0 1 2 1
85 15 0 0 0 0 0 2 3 4 7 6 0 0 2 0 0 0 0 0 0 0 0 0 0 0 0 0 0 0 0 0 0 0 0 4 2 0 0 2 3 4 4
109 134 6 0 0 0 0 0 6 5 4 6 2 0 0 0 0 0 0 0 0 0 0 0 0 0 0 0 0 0 0 0 0 0 0 0 0 4 4 3 3 4 5
325 240 66 1 0 0 0 0 7 8 14 13 5 5 2 0 0 0 0 0 0 0 0 0 0 0 0 0 0 0 0 0 0 0 0 0 0 0 0 3 3 2 2
279 249 250 39 0 0 0 0 0 4 7 19 19 25 11 5 3 0 0 0 0 0 0 0 0 0 0 0 0 0 0 0 0 0 0 0 0 0 0 0 0 3 6
197 331 296 199 47 1 0 0 0 0 0 0 11 12 23 13 7 2 4 1 0 0 0 0 0 0 0 0 0 0 0 0 0 0 0 0 0 0 0 0 0 0 0
219 247 172 304 243 192 81 54 29 27 50 73 44 17 8 11 4 0 0 5 2 0 1 0 0 0 0 0 0 0 0 0 0 0 0 0 0 0 0 0 0 0 0
260 208 163 114 217 296 167 137 65 43 78 131 129 126 64 20 17 16 6 6 7 3 0 0 1 26 0 0 0 0 0 0 0 0 0 0 0 0 0 0 0 0 0
196 127 69 53 36 201 258 244 158 66 6 59 147 157 122 81 48 24 35 13 11 10 3 4 2 42 98 23 8 0 0 0 0 0 0 0 0 0 0 0 0 0 0
60 28 28 34 7 8 16 9 44 128 105 45 33 123 125 129 101 98 101 41 13 18 13 1 1 46 96 76 73 79 15 1 0 0 0 0 0 0 0 0 0 0 0
0 123 1 48 16 1 2 7 0 4 33 38 45 23 61 137 89 120 116 119 99 69 39 14 0 56 102 141 176 127 54 0 6 3 0 0 0 0 0 0 0 0 0
0 0 0 58 89 14 15 3 2 20 22 49 46 40 85 126 100 93 116 95 131 148 93 69 19 7 49 73 60 62 47 33 45 0 0 0 0 0 0 0 0 0 0
0 0 0 0 0 0 17 7 43 57 23 21 20 54 94 157 109 88 147 212 202 118 81 45 15 2 1 0 6 11 4 3 5 5 8 1 0 0 0 0 0 0 0
0 0 0 0 0 0 0 0 0 19 72 53 47 65 109 110 102 71 88 108 139 96 73 46 17 10 4 3 3 3 6 10 5 9 3 11 21 40 16 0 0 0 0
0 0 0 0 0 0 0 0 0 0 0 1 36 108 115 93 71 27 14 1 21 63 90 97 47 49 47 69 59 29 11 26 11 1 7 8 15 24 45 94 28 0 0
2 2 1 1 0 0 0 0 0 0 0 0 0 0 0 0 0 0 0 0 0 0 0 10 22 32 47 62 66 54 54 52 22 29 51 8 17 8 19 24 0 0 0
1 1 0 1 0 0 0 0 0 0 0 0 1 0 0 1 2 0 0 0 0 0 0 0 1 1 1 0 0 1 2 2 0 0 16 28 28 30 41 24 18 3 0
2 0 1 1 1 0 0 0 0 2 6 4 0 0 0 0 0 0 0 0 0 0 0 0 0 0 0 0 0 0 2 5 2 1 2 19 0 7 24 17 35 22 3
2 1 2 1 0 1 0 0 0 0 0 0 0 0 0 0 0 0 0 0 0 0 0 0 0 0 0 0 0 0 1 3 4 1 2 1 0 2 5 8 45 46 48
CIN
-1 -2 -1 -2 -0 -1 -1 -1 -1 -0 -0 -0 -0 -0 -0 -0 -0 -0 -0 -3 -5 -1 -1 -1 -1 -0 -0 -0 -1 -0 -0 -1 -0 -0 -0 -0 -0 -0 -0 -0 -0 -0 -0
-0 -1 -1 -1 -1 -1 -1 -0 -1 -1 -0 -0 -0 -0 -0 -0 -0 -0 -0 -0 -2 -3 -2 -0 -1 -0 -0 -0 -0 -0 -0 -0 -0 -0 -0 -0 -0 -0 -0 -0 -0 -0 -0
-0 -0 -0 -0 -0 -1 -1 -1 -0 -2 -1 -0 -0 -0 -0 -0 -0 -0 -1 -0 -0 -0 -0 -0 -3 -0 -1 -0 -0 -0 -1 -0 -0 -0 -0 -0 -0 -1 -0 -0 -0 -0 -0
-0 -0 -1 -1 -2 -1 -1 -0 -2 -1 -1 -1 -0 -0 -0 -0 -0 -0 -0 -0 -0 -0 -0 -0 -0 -0 -0 -1 -1 -0 -0 -0 -0 -0 -0 -1 -0 -0 -0 -0 -0 -0 -0
-0 -0 -1 -0 -1 -1 -1 -1 -1 -1 -1 -1 -0 -0 -0 -0 -0 -0 -0 -0 -0 -0 -0 -0 -0 -0 -0 -0 -0 -0 -0 -0 -0 -0 -0 -0 -0 -0 -0 -0 -0 -0 -0
-1 -1 -0 -0 -0 -1 -1 -1 -1 -1 -2 -1 -1 -0 -0 -0 -0 -0 -0 -0 -0 -0 -0 -0 -0 -0 -0 -0 -0 -0 -0 -0 -0 -1 -1 -0 -0 -0 -0 -0 -0 -0 -0
-0 -0 -0 -0 -0 -1 -1 -1 -1 -1 -2 -1 -1 -1 -0 -0 -0 -0 -0 -0 -0 -0 -0 -0 -0 -0 -0 -0 -0 -0 -0 -0 -0 -0 -0 -1 -0 -0 -0 -0 -0 -0 -0
-8 -0 -0 -0 -0 -0 -1 -1 -1 -1 -1 -1 -1 -1 -0 -0 -0 -0 -0 -0 -0 -0 -0 -0 -0 -0 -0 -0 -0 -0 -0 -0 -0 -0 -0 -1 -0 -0 -0 -0 -0 -0 -0
-5 -8 -0 -0 -0 -0 -0 -0 -1 -1 -1 -0 -0 -0 -1 -0 -0 -0 -0 -0 -0 -0 -0 -0 -0 -0 -0 -0 -0 -0 -0 -0 -0 -0 -0 -0 -0 -0 -0 -0 -0 -0 -0
-3 -0 -0 -0 -0 -0 -0 -0 -1 -1 -1 -3 -1 -0 -0 -0 -0 -0 -0 -0 -0 -0 -0 -0 -0 -0 -0 -0 -0 -0 -0 -0 -0 -0 -0 -0 -0 -0 -1 -0 -0 -0 -0
-1 -0 -9 -4 -0 -0 -0 -0 -1 -1 -1 -2 -5 -1 -1 -0 -0 -0 -0 -0 -0 -0 -0 -0 -0 -0 -0 -0 -0 -0 -0 -0 -0 -0 -0 -0 -0 -0 -0 -0 -0 -0 -0
-1 -3 -0 -20 -0 -0 -0 -0 -0 -1 -2 -1 -1 -1 -1 -1 -0 -0 -0 -0 -0 -0 -0 -0 -0 -0 -0 -0 -0 -0 -0 -0 -0 -0 -0 -0 -0 -0 -0 -0 -0 -0 -0
-2 -0 -1 -6 -12 -0 -0 -0 -0 -0 -0 -0 -1 -1 -1 -2 -2 -0 -1 -0 -0 -0 -0 -0 -0 -0 -0 -0 -0 -0 -0 -0 -0 -0 -0 -0 -0 -0 -0 -0 -0 -0 -0
-1 -5 -13 -4 -4 -0 -4 -9 -8 -8 -12 -3 -6 -1 -1 -1 -1 -0 -0 -0 -0 -0 -1 -0 -0 -0 -0 -0 -0 -0 -0 -0 -0 -0 -0 -0 -0 -0 -0 -0 -0 -0 -0
-1 -3 -9 -13 -4 -0 -3 -3 -17 -15 -3 -1 -3 -2 -1 -11 -33 -48 -7 -1 -0 -0 -0 -0 -1 -4 -2 -0 -0 -0 -0 -0 -0 -0 -0 -0 -0 -0 -0 -0 -0 -0 -0
-2 -9 -17 -21 -22 -0 -1 -0 -0 -16 -18 -6 -0 -2 -2 -3 -6 -9 -4 -6 -2 -1 -0 -69 -74 -14 -3 -20 -35 -0 -0 -0 -0 -0 -0 -0 -0 -0 -0 -0 -0 -0 -0
-25 -18 -4 -8 -50 -55 -52 -4 -10 -0 -0 -12 -0 -0 -4 -3 -2 -1 -1 -3 -7 -14 -6 -41 -43 -44 -5 -8 -13 -13 -24 -1 -0 -0 -0 -0 -0 -0 -0 -0 -0 -0 -0
-0 -0 -0 -0 -19 -0 -17 -61 -2 -38 -8 -1 -9 -12 -0 -5 -7 -10 -6 -4 -2 -4 -3 -13 -1 -10 -1 -1 -1 -1 -24 -0 -2 -0 -0 -0 -0 -0 -0 -0 -0 -0 -0
-0 -0 -2 -23 -11 -79 -20 -16 -0 -11 -42 -2 -1 -2 -0 -0 -3 -8 -5 -16 -1 -1 -1 -1 -3 -8 -1 -4 -1 -2 -2 -1 -0 -0 -0 -0 -0 -0 -0 -0 -0 -0 -0
-0 -0 -0 -0 -0 -0 -6 -13 -5 -7 -41 -20 -18 -4 -6 -1 -0 -7 -0 -2 -2 -2 -1 -3 -2 -4 -6 -12 -16 -5 -10 -2 -0 -0 -0 -0 -0 -0 -0 -0 -0 -0 -0
-0 -0 -0 -0 -0 -0 -0 -0 -0 -0 -0 -7 -25 -12 -1 -6 -1 -5 -1 -1 -6 -0 -1 -3 -2 -6 -17 -0 -0 -1 -3 -0 -0 -0 -0 -4 -4 -2 -0 -0 -0 -0 -0
-0 -0 -0 -0 -1 -0 -0 -0 -0 -0 -0 -0 -6 -1 -1 -0 -7 -21 -28 -7 -18 -0 -15 -20 -1 -3 -0 -0 -0 -1 -7 -0 -0 -3 -4 -0 -1 -0 -0 -0 -8 -0 -0
-0 -0 -1 -0 -0 -0 -0 -0 -0 -0 -0 -0 -0 -0 -0 -0 -0 -0 -0 -0 -0 -0 -0 -13 -7 -10 -4 -1 -0 -1 -2 -1 -4 -0 -1 -1 -17 -6 -2 -3 -0 -0 -0
-0 -1 -1 -2 -0 -0 -0 -0 -0 -0 -0 -0 -3 -0 -0 -0 -0 -0 -0 -0 -0 -0 -0 -0 -0 -0 -0 -0 -0 -0 -0 -0 -0 -0 -2 -12 -1 -2 -1 -3 -3 -5 -0
-0 -0 -0 -0 -0 -0 -0 -0 -0 -0 -1 -8 -0 -0 -0 -0 -0 -0 -0 -0 -0 -0 -0 -0 -0 -0 -0 -0 -0 -0 -0 -0 -0 -0 -1 -0 -0 -1 -0 -0 -1 -6 -12
-0 -0 -0 -0 -0 -0 -0 -0 -0 -0 -1 -0 -0 -0 -0 -0 -0 -0 -0 -0 -0 -0 -0 -0 -0 -0 -0 -0 -0 -0 -0 -0 -0 -0 -1 -0 -0 -0 -0 -0 -0 -1 -1
Wind_Speed
8 6 6 5 9 6 5 6 9 7 8 9 10 11 12 12 11 10 8 8 8 9 9 10 10 10 11 11 11 11 12 12 12 13 14 14 14 15 15 17 17 18 19
11 10 9 8 8 10 8 9 7 7 7 8 8 9 10 11 11 10 9 7 8 8 9 9 9 9 10 11 11 11 11 13 13 13 13 13 13 14 15 15 16 17 17
11 10 8 12 11 10 9 9 8 8 9 8 8 8 9 9 10 10 9 7 7 7 8 8 8 8 8 9 10 11 11 11 12 13 12 12 12 12 13 14 14 15 15
9 12 11 9 10 10 10 10 10 9 9 9 8 7 7 8 8 8 8 8 7 5 6 6 7 8 8 8 7 9 9 10 11 12 11 12 11 11 11 12 13 13 14
13 13 11 12 11 12 12 11 12 13 11 12 11 10 9 7 7 6 7 6 8 8 5 3 4 7 8 7 7 6 7 7 8 10 10 10 9 10 11 11 11 12 12
14 16 17 13 10 12 12 13 14 14 15 13 13 12 12 11 9 6 5 5 5 5 5 5 4 6 4 5 6 6 5 5 5 7 8 8 9 9 9 9 10 11 11
12 14 19 16 12 13 13 11 13 15 16 14 15 15 15 14 13 11 7 6 4 3 3 3 3 4 1 2 4 5 6 7 7 6 6 6 7 8 9 9 9 10 10
13 13 15 12 11 11 11 14 16 15 16 15 13 15 17 15 14 11 11 9 9 6 3 4 4 4 5 3 1 3 5 7 8 9 8 8 7 7 8 8 9 9 10
22 17 17 17 13 16 12 12 12 14 15 15 15 18 18 20 16 11 11 13 13 11 11 11 8 6 6 5 7 3 5 5 7 9 10 11 10 10 10 10 11 11 11
24 25 20 22 18 15 15 13 13 14 17 17 16 20 26 24 20 19 16 14 14 14 16 14 12 11 12 11 9 7 6 6 6 6 8 9 11 12 12 12 13 13 13
11 27 20 19 20 17 17 16 14 14 17 20 18 18 21 22 22 23 23 18 15 18 17 16 18 16 17 15 16 14 10 8 9 9 9 10 10 11 12 13 14 13 14
17 18 16 17 19 20 18 16 16 16 16 21 22 19 19 19 19 18 21 23 23 22 16 18 17 18 19 19 16 19 18 13 12 12 12 13 14 14 13 13 14 14 14
23 19 19 21 19 22 18 18 18 18 16 16 19 23 23 21 21 21 21 25 27 28 24 22 25 23 21 23 23 21 17 16 17 17 16 17 17 17 17 17 16 16 16
22 20 19 24 20 24 20 19 23 20 19 20 18 21 22 22 21 22 26 25 27 27 27 23 17 17 19 23 22 24 25 20 18 17 18 21 20 21 21 21 21 20 20
24 22 21 22 24 25 24 22 24 23 25 22 20 19 25 25 24 24 24 27 30 34 31 24 23 18 18 19 17 17 14 14 15 18 19 19 20 21 22 24 25 24 24
23 21 23 25 27 24 25 26 25 31 30 28 24 23 25 26 25 25 25 30 28 31 42 27 28 27 27 22 22 19 17 17 17 19 20 21 22 23 24 24 24 26 26
22 24 19 27 26 28 20 26 32 35 31 37 33 27 26 27 27 24 23 25 30 30 37 40 31 29 28 30 29 31 28 28 26 21 21 22 22 21 23 25 26 25 25
18 18 21 22 28 28 23 18 28 33 38 38 37 36 37 35 35 32 34 33 31 30 33 37 37 35 37 35 34 34 34 32 30 28 26 24 23 23 23 23 24 25 27
22 21 19 19 17 21 23 22 15 27 34 19 30 36 39 37 37 41 39 35 35 34 34 37 37 38 39 38 41 39 38 38 37 35 31 29 27 26 27 26 24 23 24
20 19 17 20 21 22 22 18 19 16 19 23 16 24 36 35 37 41 41 36 33 36 36 38 39 38 39 40 41 45 46 42 43 39 37 34 35 32 29 27 27 28 28
18 17 16 16 16 16 19 20 22 22 18 19 22 14 22 26 29 27 29 30 33 35 35 36 38 40 39 40 42 44 47 46 45 42 43 42 41 39 36 32 30 29 29
17 16 17 16 16 17 20 21 23 23 24 25 24 23 26 26 27 26 28 31 32 37 41 41 41 41 42 42 42 44 47 51 53 40 44 45 39 43 40 37 36 33 32
18 18 17 18 18 20 24 25 26 27 27 27 27 28 29 28 28 31 33 35 36 38 39 42 46 45 49 46 48 51 49 49 52 50 48 55 45 50 45 43 45 42 39
18 19 18 19 19 23 26 27 29 25 25 25 26 26 27 30 33 35 36 37 38 38 38 39 41 44 46 48 48 50 51 53 55 55 50 57 54 54 50 50 49 47 45
15 16 18 20 21 23 27 28 26 23 23 21 23 26 28 30 33 35 35 37 38 38 38 41 43 44 45 46 46 48 51 54 58 59 52 53 58 60 58 59 55 53 51
14 15 16 18 20 21 25 26 26 23 21 22 21 23 28 30 32 34 34 35 38 40 42 43 42 42 42 43 45 45 47 54 57 62 49 55 59 58 60 57 55 55 54
Wind_Direction
291 321 310 324 306 316 326 324 321 357 13 25 35 48 55 14 21 22 23 13 17 15 24 31 22 8 3 1 359 352 350 353 351 351 353 357 1 3 7 11 15 19 22
288 292 298 303 304 295 298 301 320 337 2 14 24 30 42 48 47 34 32 20 355 2 3 16 28 22 5 352 350 352 348 342 348 351 351 352 356 2 3 6 12 16 18
289 295 305 291 292 291 293 293 305 316 325 343 5 25 33 29 44 34 43 48 22 358 349 1 7 15 21 9 358 347 346 346 342 343 349 352 355 357 359 2 7 11 13
292 284 290 298 292 289 286 287 290 301 313 320 342 5 24 31 37 43 40 25 60 49 11 353 0 355 1 6 8 357 351 346 342 342 344 345 349 352 355 356 359 2 5
278 281 290 287 283 281 281 284 285 289 299 305 315 324 336 4 27 53 39 40 19 8 52 102 8 343 338 346 352 358 356 350 344 339 339 342 343 344 345 349 351 353 355
276 272 274 281 283 281 282 282 284 286 289 297 304 315 320 328 343 10 28 33 58 52 37 41 31 349 334 331 329 330 335 340 338 336 335 331 333 335 336 339 341 342 345
270 273 270 272 278 280 281 288 291 287 286 294 299 305 309 312 316 327 345 354 14 29 41 42 31 11 342 238 301 310 311 318 319 313 318 322 319 323 326 326 328 331 333
266 269 272 273 273 277 282 282 281 286 287 289 295 304 306 309 307 310 316 322 323 336 347 339 345 349 353 12 251 255 288 298 304 307 300 301 302 300 306 311 314 318 321
262 265 266 271 272 274 278 278 280 282 286 287 285 294 301 301 314 316 309 310 311 314 317 319 318 319 320 323 330 287 242 263 286 294 297 299 294 293 294 298 305 306 308
261 261 265 266 271 272 276 277 279 282 283 285 290 285 287 298 305 310 313 312 312 310 309 316 317 313 312 314 313 304 303 249 246 257 271 286 292 295 290 290 293 299 300
231 257 260 264 269 271 272 275 277 277 282 283 287 291 291 293 295 299 306 312 312 307 307 309 308 314 310 308 310 308 296 281 274 266 259 255 265 274 281 289 285 285 289
261 255 253 259 266 269 270 270 273 275 278 282 283 287 290 294 294 298 299 302 306 309 310 308 309 309 309 308 306 306 307 294 282 273 270 266 265 264 266 266 269 275 272
270 261 256 262 262 267 269 269 268 271 272 276 281 283 286 290 293 298 299 300 303 303 306 306 306 309 308 306 306 305 299 292 291 286 280 279 278 273 268 264 263 261 262
269 264 257 265 263 266 268 269 272 271 273 275 276 279 283 286 289 291 294 299 302 303 304 306 313 313 309 307 306 306 306 299 287 275 279 285 282 280 279 277 271 269 270
270 266 261 266 268 271 266 266 268 268 273 275 275 276 278 282 287 289 293 294 293 296 301 310 313 314 308 309 305 305 291 262 264 263 263 260 267 272 275 276 276 271 271
275 271 273 273 278 276 272 270 269 271 271 275 269 273 276 281 284 287 290 288 293 295 286 307 309 313 314 312 312 304 297 290 290 290 280 274 273 268 262 264 272 277 275
281 273 284 274 280 285 287 280 273 277 276 280 275 275 274 279 283 290 293 293 292 294 292 295 304 310 311 309 308 307 308 307 307 297 288 286 281 280 273 266 263 264 265
284 288 287 290 290 288 286 281 281 273 276 288 280 272 274 274 279 286 288 290 292 295 295 296 299 303 305 307 306 306 308 308 308 306 303 295 291 288 286 275 270 273 275
280 290 292 296 307 307 292 294 310 274 283 298 284 272 270 277 280 281 283 290 291 295 297 298 300 302 303 306 304 305 306 307 308 307 304 300 296 291 289 283 276 274 274
285 290 296 297 302 309 303 297 296 304 295 298 307 288 269 281 281 282 284 294 296 297 299 300 302 303 303 305 303 303 302 304 304 307 306 302 301 300 293 288 283 282 279
288 293 300 307 312 315 316 308 297 301 300 301 298 290 290 294 294 298 301 302 301 302 303 303 304 305 305 306 305 305 302 303 302 304 304 303 303 302 301 295 291 288 289
287 293 296 302 310 314 312 309 306 305 305 305 307 308 308 307 305 303 302 301 301 301 301 302 303 303 304 307 307 306 304 302 301 305 302 301 303 301 301 300 299 295 292
286 292 295 298 301 311 309 308 304 301 301 303 306 307 308 309 312 309 307 305 304 303 301 301 301 301 303 307 307 305 305 302 300 301 302 299 300 297 299 297 298 296 294
286 293 298 303 305 310 312 311 308 308 306 306 308 313 313 312 312 309 307 306 306 307 308 308 307 307 307 308 308 306 305 304 302 301 304 299 300 297 297 296 295 293 291
295 299 306 307 310 312 314 314 313 312 313 313 316 318 317 315 315 314 311 309 309 310 312 311 311 310 311 311 313 311 309 306 303 302 305 301 299 298 296 294 294 293 291
309 315 319 320 316 315 318 317 316 316 315 315 317 319 322 320 319 319 317 316 313 314 315 315 316 316 318 318 317 317 314 308 306 302 306 307 303 304 298 300 298 297 296